This is the latest recevied weather packets stored in our database for station/object K7LDN-13. If no packets are shown the sender has not sent any weather packets the latest 10 day(s).
| Time | Temp. | Humidity | Pressure | Rain* | Wind** | Luminosity | Snow |
|---|---|---|---|---|---|---|---|
| 1777941958 | 21.67° C | 27% | 1009.9 hPa | 0 mm | - | 133 W/m² | - |
| 1777941655 | 22.78° C | 27% | 1010.1 hPa | 0 mm | - | 251 W/m² | - |
| 1777941352 | 21.11° C | 29% | 1010.1 hPa | 0 mm | - | 262 W/m² | - |
| 1777941049 | 20.56° C | 30% | 1010 hPa | 0 mm | - | 214 W/m² | - |
| 1777940744 | 20.56° C | 30% | 1009.9 hPa | 0 mm | - | 163 W/m² | - |
| 1777940443 | 20.56° C | 32% | 1009.9 hPa | 0 mm | - | 159 W/m² | - |
| 1777940140 | 20.56° C | 31% | 1009.9 hPa | 0 mm | - | 156 W/m² | - |
| 1777939837 | 20.56° C | 32% | 1009.9 hPa | 0 mm | - | 175 W/m² | - |
| 1777939535 | 20° C | 31% | 1010 hPa | 0 mm | - | 192 W/m² | - |
| 1777939232 | 20.56° C | 30% | 1010.1 hPa | 0 mm | - | 176 W/m² | - |
| 1777938929 | 20.56° C | 31% | 1010 hPa | 0 mm | - | 171 W/m² | - |
| 1777938626 | 20.56° C | 30% | 1010.2 hPa | 0 mm | - | 170 W/m² | - |
| 1777938323 | 20.56° C | 30% | 1010.1 hPa | 0 mm | - | 208 W/m² | - |
| 1777938020 | 21.11° C | 32% | 1010 hPa | 0 mm | - | 327 W/m² | - |
| 1777937715 | 20° C | 33% | 1010.2 hPa | 0 mm | - | 322 W/m² | - |
| 1777937412 | 20° C | 32% | 1010.3 hPa | 0 mm | - | 210 W/m² | - |
| 1777937109 | 20° C | 32% | 1010.2 hPa | 0 mm | - | 264 W/m² | - |
| 1777936807 | 20° C | 33% | 1010.6 hPa | 0 mm | - | 159 W/m² | - |
| 1777936503 | 20° C | 33% | 1010.4 hPa | 0 mm | - | 215 W/m² | - |
| 1777936199 | 20° C | 33% | 1010.3 hPa | 0 mm | - | 202 W/m² | - |
| 1777935896 | 20° C | 33% | 1010.3 hPa | 0 mm | - | 222 W/m² | - |
| 1777935595 | 19.44° C | 32% | 1010.3 hPa | 0 mm | - | 171 W/m² | - |
| 1777935291 | 20° C | 32% | 1010.4 hPa | 0 mm | - | 166 W/m² | - |
| 1777934988 | 21.11° C | 31% | 1010.2 hPa | 0 mm | - | 207 W/m² | - |
| 1777934685 | 22.22° C | 28% | 1010.3 hPa | 0 mm | - | 440 W/m² | - |
* Rain latest hour (hover to see other rain measurements)
** Current wind speed in m/s (hover to see current wind gust speed)